#timestamp,LO_Frequency,Hit,StdDev 
1664175615.6,286046991.9,N
1664175635.4,286046996.9,N
1664175655.3,286046993.7,N
1664175675.1,286046989.7,N
1664175676.0,286046989.7,N
1664175695.8,286046985.7,Y
1664175715.7,286046992.3,P
1664175735.5,286046987.1,P
1664175755.4,286046984.0,P
1664175775.2,286046983.7,Y
1664175795.0,286046997.7,P
1664175795.9,286046997.7,N
1664175815.8,286046993.3,N
1664175835.6,286046993.7,N
1664175855.4,286046994.5,N
1664175875.3,286046994.0,N
1664175895.1,286046988.5,Y
1664175915.9,286046999.0,P
1664175935.7,286046996.9,N
1664175955.5,286046995.4,N
1664175975.4,286046999.6,N
1664175995.2,286046997.5,N
1664176015.0,286047001.1,N
1664176015.9,286047001.1,N
1664176035.8,286046995.3,N
1664176055.6,286047000.7,N
1664176075.5,286047001.0,N
1664176095.3,286046994.1,N
1664176115.1,286046996.4,N
1664176135.9,286046998.8,N
1664176155.7,286047000.2,N
1664176175.6,286046995.0,N
1664176195.4,286046994.7,N
1664176215.2,286046990.2,Y
1664176235.1,286046998.3,P
1664176236.0,286046998.3,P
1664176255.8,286047000.1,N
1664176275.6,286046996.6,Y
1664176295.5,286046998.3,P
1664176315.3,286046995.1,P
1664176335.2,286046991.0,P
1664176355.9,286046988.6,Y
1664176375.7,286046996.2,P
1664176395.6,286047000.6,N
1664176415.4,286046999.3,N
1664176435.2,286047011.9,Y
1664176455.1,286046998.4,P
1664176456.0,286046998.4,P
1664176475.8,286046998.2,P
1664176495.7,286046999.2,Y
1664176515.5,286046999.3,P
1664176535.3,286046995.6,P
1664176555.2,286046998.4,N
1664176575.0,286046996.2,N
1664176575.9,286046996.2,N
1664176595.8,286046993.1,Y
1664176615.6,286046996.5,P
1664176635.4,286046995.3,P
1664176655.3,286046993.5,P
1664176675.1,286046995.5,Y
1664176695.8,286047001.9,P
1664176715.7,286046998.2,N
1664176735.5,286046997.8,N
1664176755.4,286046991.7,Y
1664176775.2,286046991.6,P
1664176795.0,286046986.9,P
1664176795.9,286046986.9,N
1664176815.8,286046991.6,N
1664176835.6,286046986.9,Y
1664176855.4,286046995.5,P
1664176875.3,286046990.2,P
1664176895.1,286046990.2,P
1664176915.9,286046988.8,Y
1664176935.7,286046997.1,P
1664176955.6,286047002.7,N
1664176975.4,286047003.3,N
1664176995.2,286047000.0,N
1664177015.1,286047003.7,N
1664177016.0,286047003.7,N
1664177035.8,286047002.7,N
1664177055.7,286047002.0,N
1664177075.5,286047003.9,N
1664177095.3,286047000.9,N
1664177115.2,286046998.7,N
1664177135.0,286046998.1,N
1664177135.9,286046998.1,N
1664177155.8,286047005.6,N
1664177175.6,286047002.5,N
1664177195.4,286047000.8,N
1664177215.3,286046998.2,N
1664177235.1,286047000.1,N
1664177255.8,286046997.9,N
1664177275.7,286046990.8,N
1664177295.5,286046985.5,Y
1664177315.4,286046991.5,P
1664177335.2,286046993.9,N
1664177355.0,286046993.3,N
1664177355.9,286046993.3,N
1664177375.8,286046996.3,N
1664177395.6,286046997.8,N
1664177415.4,286046991.7,N
1664177435.3,286046988.7,Y
1664177455.1,286046993.3,P
1664177475.9,286046993.7,P
1664177495.7,286046995.3,P
1664177515.5,286046992.2,Y
1664177535.4,286046996.9,P
1664177555.2,286046998.7,N
1664177575.0,286046997.4,N
1664177576.0,286046997.4,N
1664177595.8,286046997.3,N
1664177615.6,286046991.7,Y
1664177635.5,286046991.7,P
1664177655.3,286046993.8,N
1664177675.1,286046994.7,N
1664177695.9,286046993.1,Y
1664177715.7,286046997.9,P
1664177735.6,286046997.0,N
1664177755.4,286046997.7,N
1664177775.2,286046993.4,Y
1664177795.1,286046997.4,P
1664177796.0,286046997.4,P
1664177815.8,286046996.6,P
1664177835.7,286046997.8,Y
1664177855.5,286046995.4,P
1664177875.3,286046995.6,P
1664177895.2,286046994.1,P
1664177915.0,286046994.5,Y
1664177915.9,286046994.5,P
1664177935.8,286047000.6,N
1664177955.6,286046998.8,N
1664177975.4,286046997.3,N
1664177995.3,286046995.1,N
1664178015.1,286046993.8,N
1664178035.8,286046993.7,N
1664178055.7,286046991.8,Y
1664178075.5,286046998.2,P
1664178095.4,286046998.1,N
1664178115.2,286047000.7,N
1664178135.0,286046996.6,N
1664178135.9,286046996.6,N
1664178155.8,286046995.8,N
1664178175.6,286046993.6,Y
1664178195.4,286046996.3,P
1664178215.3,286046991.8,P
1664178235.1,286046994.6,N
1664178255.9,286046994.6,N
1664178275.7,286046991.7,Y
1664178295.5,286046997.1,P
1664178315.4,286046996.5,P
1664178335.2,286046996.8,P
1664178355.0,286046995.4,Y
1664178356.0,286046995.4,P
1664178375.8,286046998.4,P
1664178395.6,286047000.3,N
1664178415.5,286047000.0,N
1664178435.3,286046999.9,N
1664178455.1,286046999.5,N
1664178475.9,286047000.5,N
1664178495.7,286047005.7,Y
1664178515.5,286047004.7,P
1664178535.4,286047001.4,N
1664178555.2,286047000.1,N
1664178575.1,286047001.9,N
1664178576.0,286047001.9,N
1664178595.8,286047001.8,N
1664178615.6,286047002.8,N
1664178635.5,286047002.3,N
1664178655.3,286047000.8,N
1664178675.1,286046999.2,N
1664178695.9,286046998.9,N
1664178715.7,286046996.7,N
1664178735.6,286046997.9,N
1664178755.4,286046997.8,N
1664178775.2,286046997.9,N
1664178795.1,286046994.9,N
1664178796.0,286046994.9,N
1664178815.8,286046994.6,N
1664178835.7,286046992.9,N
1664178855.5,286046989.9,Y
1664178875.3,286046987.4,P
1664178895.2,286046988.1,N
1664178915.0,286046986.7,N
1664178915.9,286046986.7,N
1664178935.7,286046985.2,Y
1664178955.6,286046991.7,P
1664178975.4,286046994.5,P
1664178995.3,286046989.7,P
1664179015.1,286046983.7,Y
1664179035.8,286046991.8,P
1664179055.7,286046992.6,P
1664179075.5,286046993.2,P
1664179095.4,286046991.6,Y
1664179115.2,286046998.1,P
1664179135.1,286046995.6,N
1664179136.0,286046995.6,N
1664179155.8,286046994.9,N
1664179175.6,286046995.1,N
1664179195.5,286046997.9,N
